| time (UTC) | temp F | wind direction | speed MPH | gust MPH | rain 1hr in | rain 24hr in | rain mn in | humidity % | barometer mb |
| 20260510030406 | 77 | 112 | 3.0 | 9.0 | 0.00 | 0.00 | 0.00 | 68 | 1007.2 |
| 20260510025906 | 77 | 119 | 2.0 | 5.0 | 0.00 | 0.00 | 0.00 | 67 | 1007.3 |
| 20260510025406 | 77 | 128 | 2.0 | 7.0 | 0.00 | 0.00 | 0.00 | 67 | 1007.2 |
| 20260510024407 | 78 | 117 | 3.0 | 5.0 | 0.00 | 0.00 | 0.00 | 66 | 1007.1 |
| 20260510023906 | 78 | 115 | 2.0 | 6.0 | 0.00 | 0.00 | 0.00 | 65 | 1007.2 |
| 20260510023406 | 79 | 120 | 2.0 | 6.0 | 0.00 | 0.00 | 0.00 | 66 | 1007.2 |
| 20260510022906 | 79 | 115 | 3.0 | 6.0 | 0.00 | 0.00 | 0.00 | 66 | 1007.2 |
| 20260510021906 | 79 | 114 | 2.0 | 7.0 | 0.00 | 0.00 | 0.00 | 65 | 1007.1 |
| 20260510021406 | 80 | 98 | 3.0 | 7.0 | 0.00 | 0.00 | 0.00 | 65 | 1007.1 |
| 20260510020906 | 80 | 111 | 2.0 | 7.0 | 0.00 | 0.00 | 0.00 | 65 | 1007.1 |
| 20260510015906 | 81 | 105 | 2.0 | 6.0 | 0.00 | 0.00 | 0.00 | 64 | 1007.1 |
| 20260510015406 | 81 | 97 | 2.0 | 7.0 | 0.00 | 0.00 | 0.00 | 65 | 1007.0 |
| 20260510014906 | 81 | 70 | 1.0 | 7.0 | 0.00 | 0.00 | 0.00 | 65 | 1007.1 |
| 20260510014406 | 81 | 88 | 2.0 | 7.0 | 0.00 | 0.00 | 0.00 | 65 | 1007.1 |
| 20260510013906 | 81 | 96 | 3.0 | 8.0 | 0.00 | 0.00 | 0.00 | 65 | 1006.9 |
| 20260510013406 | 81 | 102 | 3.0 | 8.0 | 0.00 | 0.00 | 0.00 | 64 | 1006.8 |
| 20260510012907 | 82 | 98 | 4.0 | 8.0 | 0.00 | 0.00 | 0.00 | 64 | 1006.6 |
| 20260510012406 | 82 | 101 | 3.0 | 8.0 | 0.00 | 0.00 | 0.00 | 64 | 1006.7 |
| 20260510011906 | 82 | 107 | 2.0 | 8.0 | 0.00 | 0.00 | 0.00 | 64 | 1006.6 |
| 20260510011406 | 83 | 96 | 3.0 | 8.0 | 0.00 | 0.00 | 0.00 | 64 | 1006.6 |
| 20260510010906 | 83 | 92 | 2.0 | 7.0 | 0.00 | 0.00 | 0.00 | 64 | 1006.4 |
| 20260510010406 | 83 | 82 | 3.0 | 7.0 | 0.00 | 0.00 | 0.00 | 64 | 1006.3 |
| 20260510005906 | 84 | 102 | 3.0 | 7.0 | 0.00 | 0.00 | 0.00 | 63 | 1006.3 |
| 20260510004906 | 84 | 104 | 5.0 | 10.0 | 0.00 | 0.00 | 0.00 | 62 | 1006.2 |
| 20260510004407 | 84 | 100 | 5.0 | 10.0 | 0.00 | 0.00 | 0.00 | 62 | 1006.1 |
| 20260510003907 | 85 | 109 | 5.0 | 10.0 | 0.00 | 0.00 | 0.00 | 61 | 1006.2 |
| 20260510003406 | 85 | 96 | 5.0 | 10.0 | 0.00 | 0.00 | 0.00 | 61 | 1006.0 |
| 20260510002907 | 85 | 102 | 4.0 | 12.0 | 0.00 | 0.00 | 0.00 | 61 | 1006.0 |
| 20260510002406 | 85 | 100 | 4.0 | 12.0 | 0.00 | 0.00 | 0.00 | 61 | 1006.1 |
| 20260510001906 | 86 | 103 | 6.0 | 10.0 | 0.00 | 0.00 | 0.00 | 60 | 1006.1 |
| 20260510001406 | 86 | 101 | 5.0 | 10.0 | 0.00 | 0.00 | 0.00 | 60 | 1006.1 |
| 20260510000906 | 86 | 96 | 3.0 | 10.0 | 0.00 | 0.00 | 0.00 | 60 | 1006.2 |
| 20260510000407 | 87 | 110 | 5.0 | 10.0 | 0.00 | 0.00 | 0.00 | 60 | 1006.1 |
| 20260509235907 | 87 | 104 | 4.0 | 10.0 | 0.00 | 0.00 | 0.00 | 60 | 1006.1 |
| 20260509235406 | 87 | 103 | 5.0 | 10.0 | 0.00 | 0.00 | 0.00 | 59 | 1006.2 |
| 20260509234906 | 87 | 105 | 6.0 | 12.0 | 0.00 | 0.00 | 0.00 | 58 | 1006.2 |
| 20260509234407 | 87 | 95 | 6.0 | 12.0 | 0.00 | 0.00 | 0.00 | 58 | 1006.3 |
| 20260509233907 | 88 | 96 | 8.0 | 12.0 | 0.00 | 0.00 | 0.00 | 56 | 1006.2 |
| 20260509233407 | 88 | 98 | 5.0 | 12.0 | 0.00 | 0.00 | 0.00 | 56 | 1006.3 |
| 20260509232907 | 89 | 100 | 7.0 | 12.0 | 0.00 | 0.00 | 0.00 | 55 | 1006.3 |
| 20260509232406 | 89 | 89 | 6.0 | 10.0 | 0.00 | 0.00 | 0.00 | 53 | 1006.3 |
| 20260509231907 | 89 | 86 | 5.0 | 10.0 | 0.00 | 0.00 | 0.00 | 53 | 1006.3 |
| 20260509231407 | 90 | 83 | 6.0 | 10.0 | 0.00 | 0.00 | 0.00 | 52 | 1006.4 |
| 20260509230907 | 91 | 93 | 7.0 | 10.0 | 0.00 | 0.00 | 0.00 | 50 | 1006.4 |
| 20260509230407 | 91 | 86 | 3.0 | 9.0 | 0.00 | 0.00 | 0.00 | 46 | 1006.3 |
| 20260509225907 | 92 | 73 | 4.0 | 8.0 | 0.00 | 0.00 | 0.00 | 44 | 1006.4 |
| 20260509225407 | 92 | 81 | 1.0 | 7.0 | 0.00 | 0.00 | 0.00 | 46 | 1006.4 |
| 20260509224907 | 91 | 83 | 2.0 | 7.0 | 0.00 | 0.00 | 0.00 | 44 | 1006.4 |
| 20260509224406 | 92 | 71 | 3.0 | 9.0 | 0.00 | 0.00 | 0.00 | 42 | 1006.4 |
| 20260509223907 | 92 | 83 | 2.0 | 9.0 | 0.00 | 0.00 | 0.00 | 44 | 1006.4 |
| 20260509223407 | 91 | 77 | 2.0 | 7.0 | 0.00 | 0.00 | 0.00 | 46 | 1006.4 |
| 20260509222407 | 91 | 114 | 3.0 | 9.0 | 0.00 | 0.00 | 0.00 | 49 | 1006.3 |
| 20260509221408 | 91 | 76 | 5.0 | 9.0 | 0.00 | 0.00 | 0.00 | 46 | 1006.3 |
| 20260509220907 | 91 | 89 | 3.0 | 7.0 | 0.00 | 0.00 | 0.00 | 47 | 1006.3 |
| 20260509215907 | 91 | 79 | 3.0 | 9.0 | 0.00 | 0.00 | 0.00 | 44 | 1006.4 |
| 20260509215408 | 91 | 82 | 3.0 | 9.0 | 0.00 | 0.00 | 0.00 | 44 | 1006.4 |
| 20260509214907 | 90 | 90 | 2.0 | 9.0 | 0.00 | 0.00 | 0.00 | 46 | 1006.4 |
| 20260509213407 | 91 | 114 | 5.0 | 9.0 | 0.00 | 0.00 | 0.00 | 46 | 1006.5 |
| 20260509212908 | 91 | 79 | 1.0 | 7.0 | 0.00 | 0.00 | 0.00 | 46 | 1006.5 |
| 20260509212407 | 91 | 101 | 2.0 | 7.0 | 0.00 | 0.00 | 0.00 | 48 | 1006.6 |
| 20260509211907 | 91 | 34 | 2.0 | 7.0 | 0.00 | 0.00 | 0.00 | 48 | 1006.7 |
| 20260509211408 | 90 | 65 | 2.0 | 12.0 | 0.00 | 0.00 | 0.00 | 48 | 1006.8 |
| 20260509210908 | 90 | 63 | 2.0 | 12.0 | 0.00 | 0.00 | 0.00 | 51 | 1006.8 |
| 20260509210408 | 89 | 93 | 6.0 | 12.0 | 0.00 | 0.00 | 0.00 | 50 | 1006.9 |
| 20260509205907 | 88 | 55 | 3.0 | 7.0 | 0.00 | 0.00 | 0.00 | 50 | 1007.0 |
| 20260509205408 | 87 | 89 | 3.0 | 7.0 | 0.00 | 0.00 | 0.00 | 53 | 1007.1 |
| 20260509204908 | 87 | 354 | 4.0 | 13.0 | 0.00 | 0.00 | 0.00 | 50 | 1007.1 |
| 20260509204408 | 88 | 355 | 3.0 | 13.0 | 0.00 | 0.00 | 0.00 | 51 | 1007.2 |
| 20260509203907 | 89 | 27 | 8.0 | 13.0 | 0.00 | 0.00 | 0.00 | 50 | 1007.3 |
| 20260509203408 | 89 | 76 | 3.0 | 8.0 | 0.00 | 0.00 | 0.00 | 48 | 1007.4 |
| 20260509202908 | 88 | 85 | 2.0 | 9.0 | 0.00 | 0.00 | 0.00 | 48 | 1007.4 |
| 20260509202407 | 88 | 57 | 4.0 | 10.0 | 0.00 | 0.00 | 0.00 | 47 | 1007.4 |
| 20260509201908 | 88 | 74 | 4.0 | 10.0 | 0.00 | 0.00 | 0.00 | 52 | 1007.5 |
| 20260509200908 | 88 | 89 | 2.0 | 8.0 | 0.00 | 0.00 | 0.00 | 53 | 1007.6 |
| 20260509200408 | 87 | 74 | 2.0 | 8.0 | 0.00 | 0.00 | 0.00 | 53 | 1007.7 |
| 20260509195908 | 87 | 31 | 2.0 | 8.0 | 0.00 | 0.00 | 0.00 | 54 | 1007.7 |
| 20260509195408 | 87 | 67 | 3.0 | 9.0 | 0.00 | 0.00 | 0.00 | 54 | 1007.8 |
| 20260509194408 | 87 | 85 | 5.0 | 9.0 | 0.00 | 0.00 | 0.00 | 55 | 1007.9 |
| 20260509193909 | 86 | 77 | 3.0 | 9.0 | 0.00 | 0.00 | 0.00 | 55 | 1008.0 |
| 20260509193408 | 86 | 102 | 2.0 | 9.0 | 0.00 | 0.00 | 0.00 | 57 | 1008.0 |
| 20260509192408 | 85 | 84 | 6.0 | 9.0 | 0.00 | 0.00 | 0.00 | 58 | 1008.1 |
| 20260509191908 | 86 | 10 | 7.0 | 9.0 | 0.00 | 0.00 | 0.00 | 58 | 1008.1 |
| 20260509191408 | 86 | 76 | 2.0 | 9.0 | 0.00 | 0.00 | 0.00 | 59 | 1008.2 |
| 20260509190408 | 85 | 34 | 3.0 | 9.0 | 0.00 | 0.00 | 0.00 | 60 | 1008.3 |
| 20260509185908 | 85 | 86 | 3.0 | 9.0 | 0.00 | 0.00 | 0.00 | 59 | 1008.4 |
| 20260509185408 | 84 | 75 | 5.0 | 9.0 | 0.00 | 0.00 | 0.00 | 63 | 1008.4 |
| 20260509184408 | 83 | 20 | 3.0 | 12.0 | 0.00 | 0.00 | 0.00 | 67 | 1008.4 |
| 20260509183909 | 83 | 24 | 5.0 | 9.0 | 0.00 | 0.00 | 0.00 | 68 | 1008.4 |
| 20260509183408 | 83 | 58 | 2.0 | 10.0 | 0.00 | 0.00 | 0.00 | 69 | 1008.4 |
| 20260509182909 | 83 | 32 | 7.0 | 10.0 | 0.00 | 0.00 | 0.00 | 68 | 1008.6 |
| 20260509182408 | 83 | 33 | 4.0 | 8.0 | 0.00 | 0.00 | 0.00 | 68 | 1008.5 |
| 20260509181908 | 83 | 17 | 1.0 | 8.0 | 0.00 | 0.00 | 0.00 | 71 | 1008.6 |
| 20260509181409 | 82 | 47 | 3.0 | 9.0 | 0.00 | 0.00 | 0.00 | 71 | 1008.7 |
| 20260509175908 | 82 | 346 | 2.0 | 8.0 | 0.00 | 0.00 | 0.00 | 71 | 1008.9 |
| 20260509174409 | 81 | 79 | 3.0 | 8.0 | 0.00 | 0.00 | 0.00 | 73 | 1009.1 |
| 20260509173909 | 81 | 323 | 3.0 | 8.0 | 0.00 | 0.00 | 0.00 | 72 | 1009.2 |
| 20260509173409 | 80 | 48 | 3.0 | 9.0 | 0.00 | 0.00 | 0.00 | 71 | 1009.2 |
| 20260509172910 | 80 | 47 | 5.0 | 12.0 | 0.00 | 0.00 | 0.00 | 73 | 1009.3 |
| 20260509172408 | 80 | 19 | 5.0 | 12.0 | 0.00 | 0.00 | 0.00 | 73 | 1009.3 |
| 20260509171909 | 80 | 28 | 4.0 | 9.0 | 0.00 | 0.00 | 0.00 | 74 | 1009.3 |
| 20260509171409 | 79 | 6 | 6.0 | 9.0 | 0.00 | 0.00 | 0.00 | 74 | 1009.4 |
| 20260509170909 | 79 | 9 | 5.0 | 10.0 | 0.00 | 0.00 | 0.00 | 75 | 1009.4 |
| 20260509170409 | 78 | 359 | 7.0 | 10.0 | 0.00 | 0.00 | 0.00 | 74 | 1009.5 |
| 20260509165909 | 78 | 353 | 4.0 | 10.0 | 0.00 | 0.00 | 0.00 | 74 | 1009.4 |
| 20260509165409 | 79 | 6 | 3.0 | 10.0 | 0.00 | 0.00 | 0.00 | 75 | 1009.5 |
| 20260509164910 | 78 | 9 | 3.0 | 10.0 | 0.00 | 0.00 | 0.00 | 74 | 1009.6 |
| 20260509164409 | 78 | 345 | 5.0 | 12.0 | 0.00 | 0.00 | 0.00 | 75 | 1009.6 |
| 20260509163909 | 78 | 355 | 5.0 | 12.0 | 0.00 | 0.00 | 0.00 | 76 | 1009.7 |
| 20260509163409 | 78 | 5 | 5.0 | 12.0 | 0.00 | 0.00 | 0.00 | 76 | 1009.7 |
| 20260509162909 | 78 | 27 | 7.0 | 12.0 | 0.00 | 0.00 | 0.00 | 75 | 1009.6 |
| 20260509161910 | 77 | 346 | 7.0 | 12.0 | 0.00 | 0.00 | 0.00 | 76 | 1009.6 |
| 20260509161409 | 77 | 10 | 6.0 | 12.0 | 0.00 | 0.00 | 0.00 | 78 | 1009.6 |
| 20260509160910 | 77 | 17 | 9.0 | 12.0 | 0.00 | 0.00 | 0.00 | 78 | 1009.6 |
| 20260509160409 | 77 | 2 | 8.0 | 12.0 | 0.00 | 0.00 | 0.00 | 78 | 1009.6 |
| 20260509155910 | 76 | 27 | 9.0 | 12.0 | 0.00 | 0.00 | 0.00 | 78 | 1009.6 |
| 20260509155409 | 77 | 21 | 6.0 | 12.0 | 0.00 | 0.00 | 0.00 | 79 | 1009.6 |
| 20260509154909 | 76 | 13 | 6.0 | 10.0 | 0.00 | 0.00 | 0.00 | 80 | 1009.6 |
| 20260509154410 | 76 | 6 | 4.0 | 9.0 | 0.00 | 0.00 | 0.00 | 81 | 1009.6 |
| 20260509153909 | 76 | 2 | 5.0 | 9.0 | 0.00 | 0.00 | 0.00 | 81 | 1009.5 |
| 20260509153410 | 75 | 355 | 5.0 | 9.0 | 0.00 | 0.00 | 0.00 | 81 | 1009.5 |
| 20260509152909 | 75 | 354 | 6.0 | 9.0 | 0.00 | 0.00 | 0.00 | 81 | 1009.5 |
| 20260509152410 | 75 | 23 | 4.0 | 9.0 | 0.00 | 0.00 | 0.00 | 82 | 1009.5 |
| 20260509151910 | 74 | 14 | 6.0 | 10.0 | 0.00 | 0.00 | 0.00 | 83 | 1009.5 |
| 20260509151409 | 74 | 355 | 5.0 | 10.0 | 0.00 | 0.00 | 0.00 | 82 | 1009.5 |
| 20260509150409 | 74 | 3 | 6.0 | 10.0 | 0.00 | 0.00 | 0.00 | 82 | 1009.5 |
| 20260509145410 | 74 | 15 | 5.0 | 10.0 | 0.00 | 0.00 | 0.00 | 84 | 1009.5 |
| 20260509144910 | 73 | 5 | 6.0 | 10.0 | 0.00 | 0.00 | 0.00 | 84 | 1009.5 |
| 20260509144410 | 73 | 7 | 5.0 | 9.0 | 0.00 | 0.00 | 0.00 | 84 | 1009.5 |
| 20260509143910 | 72 | 358 | 6.0 | 10.0 | 0.00 | 0.00 | 0.00 | 85 | 1009.5 |
| 20260509142911 | 72 | 0 | 7.0 | 10.0 | 0.00 | 0.00 | 0.00 | 85 | 1009.6 |
| 20260509142410 | 71 | 13 | 6.0 | 10.0 | 0.00 | 0.00 | 0.00 | 86 | 1009.5 |
| 20260509141910 | 71 | 348 | 6.0 | 12.0 | 0.00 | 0.00 | 0.00 | 86 | 1009.5 |
| 20260509141411 | 71 | 11 | 8.0 | 12.0 | 0.00 | 0.00 | 0.00 | 86 | 1009.5 |
| 20260509140911 | 70 | 7 | 7.0 | 9.0 | 0.00 | 0.00 | 0.00 | 87 | 1009.6 |
| 20260509140410 | 70 | 352 | 5.0 | 12.0 | 0.00 | 0.00 | 0.00 | 87 | 1009.7 |
| 20260509135410 | 69 | 8 | 7.0 | 10.0 | 0.00 | 0.00 | 0.00 | 88 | 1009.7 |
| 20260509134910 | 69 | 353 | 6.0 | 10.0 | 0.00 | 0.00 | 0.00 | 88 | 1009.6 |
| 20260509134411 | 69 | 353 | 6.0 | 8.0 | 0.00 | 0.00 | 0.00 | 88 | 1009.7 |
| 20260509133911 | 68 | 344 | 5.0 | 10.0 | 0.00 | 0.00 | 0.00 | 88 | 1009.6 |
| 20260509133410 | 68 | 351 | 5.0 | 10.0 | 0.00 | 0.00 | 0.00 | 88 | 1009.5 |
| 20260509132910 | 68 | 323 | 5.0 | 9.0 | 0.00 | 0.00 | 0.00 | 88 | 1009.6 |
| 20260509132411 | 68 | 315 | 4.0 | 12.0 | 0.00 | 0.00 | 0.00 | 88 | 1009.6 |
| 20260509131910 | 68 | 357 | 6.0 | 12.0 | 0.00 | 0.00 | 0.00 | 88 | 1009.5 |
| 20260509131411 | 68 | 332 | 5.0 | 9.0 | 0.00 | 0.00 | 0.00 | 88 | 1009.6 |
| 20260509130910 | 68 | 284 | 6.0 | 9.0 | 0.00 | 0.00 | 0.00 | 88 | 1009.7 |
| 20260509125410 | 68 | 293 | 3.0 | 7.0 | 0.00 | 0.00 | 0.00 | 89 | 1009.6 |
| 20260509124911 | 68 | 301 | 3.0 | 5.0 | 0.00 | 0.00 | 0.00 | 89 | 1009.6 |
| 20260509124410 | 68 | 329 | 0.0 | 3.0 | 0.00 | 0.00 | 0.00 | 89 | 1009.4 |
| 20260509123911 | 68 | 292 | 1.0 | 3.0 | 0.00 | 0.00 | 0.00 | 89 | 1009.4 |
| 20260509123410 | 68 | 5 | 1.0 | 3.0 | 0.00 | 0.00 | 0.00 | 89 | 1009.4 |
| 20260509122911 | 67 | 325 | 1.0 | 3.0 | 0.00 | 0.00 | 0.00 | 89 | 1009.3 |
| 20260509122410 | 67 | 325 | 2.0 | 3.0 | 0.00 | 0.00 | 0.00 | 89 | 1009.4 |
| 20260509121911 | 67 | 325 | 2.0 | 3.0 | 0.00 | 0.00 | 0.00 | 89 | 1009.3 |
| 20260509121411 | 67 | 291 | 1.0 | 5.0 | 0.00 | 0.00 | 0.00 | 89 | 1009.3 |
| 20260509120910 | 67 | 333 | 3.0 | 6.0 | 0.00 | 0.00 | 0.00 | 89 | 1009.2 |
| 20260509120411 | 67 | 313 | 3.0 | 6.0 | 0.00 | 0.00 | 0.00 | 88 | 1009.1 |
| 20260509115911 | 67 | 280 | 5.0 | 6.0 | 0.00 | 0.03 | 0.00 | 88 | 1009.2 |
| 20260509115410 | 67 | 290 | 1.0 | 3.0 | 0.00 | 0.03 | 0.00 | 88 | 1009.1 |
| 20260509114911 | 67 | 290 | 1.0 | 6.0 | 0.00 | 0.04 | 0.00 | 88 | 1009.0 |
| 20260509114411 | 67 | 292 | 2.0 | 6.0 | 0.00 | 0.06 | 0.00 | 88 | 1008.9 |
| 20260509113911 | 67 | 310 | 1.0 | 3.0 | 0.00 | 0.07 | 0.00 | 88 | 1008.8 |
| 20260509113411 | 67 | 306 | 2.0 | 6.0 | 0.00 | 0.15 | 0.00 | 88 | 1008.8 |
| 20260509112911 | 67 | 265 | 2.0 | 6.0 | 0.00 | 0.27 | 0.00 | 88 | 1008.8 |
| 20260509112411 | 67 | 316 | 2.0 | 3.0 | 0.00 | 0.39 | 0.00 | 88 | 1008.6 |
| 20260509111911 | 67 | 13 | 2.0 | 3.0 | 0.00 | 0.40 | 0.00 | 88 | 1008.5 |
| 20260509111411 | 67 | 13 | 1.0 | 3.0 | 0.00 | 0.43 | 0.00 | 88 | 1008.2 |
| 20260509110911 | 68 | 47 | 2.0 | 5.0 | 0.00 | 0.43 | 0.00 | 88 | 1008.0 |
| 20260509110411 | 67 | 35 | 2.0 | 5.0 | 0.00 | 0.43 | 0.00 | 88 | 1007.9 |
| 20260509105911 | 67 | 26 | 2.0 | 3.0 | 0.00 | 0.43 | 0.00 | 88 | 1007.8 |
| 20260509105411 | 67 | 39 | 2.0 | 5.0 | 0.00 | 0.43 | 0.00 | 88 | 1007.9 |
| 20260509104912 | 66 | 355 | 3.0 | 5.0 | 0.00 | 0.43 | 0.00 | 88 | 1007.9 |
| 20260509104411 | 66 | 359 | 3.0 | 5.0 | 0.00 | 0.43 | 0.00 | 88 | 1007.9 |
| 20260509103911 | 67 | 347 | 3.0 | 5.0 | 0.00 | 0.43 | 0.00 | 87 | 1007.8 |
| 20260509102913 | 68 | 329 | 2.0 | 3.0 | 0.00 | 0.43 | 0.00 | 86 | 1007.8 |
| 20260509102412 | 69 | 32 | 2.0 | 3.0 | 0.00 | 0.43 | 0.00 | 86 | 1007.8 |
| 20260509101412 | 69 | 72 | 0.0 | 1.0 | 0.00 | 0.45 | 0.00 | 86 | 1007.8 |
| 20260509100913 | 69 | 72 | 0.0 | 3.0 | 0.00 | 0.49 | 0.00 | 86 | 1007.7 |
| 20260509100411 | 70 | 72 | 0.0 | 7.0 | 0.00 | 0.51 | 0.00 | 86 | 1007.4 |
| 20260509095912 | 69 | 88 | 2.0 | 8.0 | 0.00 | 0.51 | 0.00 | 86 | 1007.0 |
| 20260509095411 | 69 | 88 | 3.0 | 9.0 | 0.00 | 0.51 | 0.00 | 87 | 1006.9 |
| 20260509094912 | 69 | 89 | 3.0 | 9.0 | 0.00 | 0.55 | 0.00 | 86 | 1006.9 |
| 20260509092412 | 69 | 57 | 4.0 | 13.0 | 0.00 | 0.58 | 0.00 | 87 | 1006.7 |
| 20260509091414 | 69 | 92 | 7.0 | 13.0 | 0.00 | 0.58 | 0.00 | 87 | 1006.7 |
| 20260509090912 | 69 | 92 | 6.0 | 12.0 | 0.00 | 0.58 | 0.00 | 87 | 1006.8 |
| 20260509090412 | 69 | 84 | 6.0 | 15.0 | 0.00 | 0.58 | 0.00 | 87 | 1006.9 |
| 20260509085912 | 69 | 90 | 7.0 | 16.0 | 0.00 | 0.58 | 0.00 | 87 | 1006.8 |
| 20260509084912 | 69 | 75 | 9.0 | 15.0 | 0.00 | 0.58 | 0.00 | 86 | 1006.8 |
| 20260509083912 | 69 | 65 | 7.0 | 13.0 | 0.00 | 0.58 | 0.00 | 86 | 1006.9 |
| 20260509083412 | 70 | 54 | 6.0 | 13.0 | 0.00 | 0.58 | 0.00 | 86 | 1006.8 |
| 20260509082912 | 70 | 49 | 9.0 | 13.0 | 0.00 | 0.58 | 0.00 | 86 | 1006.8 |
| 20260509082412 | 70 | 59 | 7.0 | 17.0 | 0.00 | 0.58 | 0.00 | 86 | 1006.7 |
| 20260509081913 | 70 | 30 | 8.0 | 17.0 | 0.00 | 0.58 | 0.00 | 86 | 1007.0 |
| 20260509081412 | 70 | 11 | 12.0 | 17.0 | 0.00 | 0.58 | 0.00 | 86 | 1007.0 |
| 20260509080413 | 70 | 175 | 5.0 | 15.0 | 0.00 | 0.58 | 0.00 | 86 | 1005.7 |
| 20260509075912 | 70 | 154 | 7.0 | 15.0 | 0.00 | 0.58 | 0.00 | 86 | 1005.6 |
| 20260509075412 | 70 | 157 | 7.0 | 15.0 | 0.00 | 0.58 | 0.00 | 86 | 1005.7 |
| 20260509074913 | 70 | 143 | 10.0 | 15.0 | 0.00 | 0.58 | 0.00 | 86 | 1005.6 |
| 20260509074414 | 70 | 151 | 10.0 | 15.0 | 0.00 | 0.58 | 0.00 | 86 | 1005.9 |
| 20260509073912 | 70 | 162 | 9.0 | 14.0 | 0.00 | 0.58 | 0.00 | 86 | 1006.4 |
| 20260509073413 | 70 | 161 | 6.0 | 14.0 | 0.00 | 0.58 | 0.00 | 86 | 1006.7 |
| 20260509072913 | 70 | 175 | 8.0 | 14.0 | 0.00 | 0.58 | 0.00 | 86 | 1007.1 |
| 20260509072412 | 70 | 171 | 7.0 | 12.0 | 0.00 | 0.58 | 0.00 | 86 | 1007.4 |
| 20260509071413 | 70 | 186 | 5.0 | 8.0 | 0.00 | 0.58 | 0.00 | 86 | 1007.7 |
| 20260509070913 | 70 | 162 | 5.0 | 7.0 | 0.00 | 0.58 | 0.00 | 86 | 1007.8 |
| 20260509070413 | 70 | 138 | 2.0 | 9.0 | 0.00 | 0.58 | 0.00 | 86 | 1007.9 |
| 20260509065413 | 69 | 189 | 6.0 | 13.0 | 0.00 | 0.58 | 0.00 | 87 | 1008.1 |
| 20260509064913 | 69 | 188 | 7.0 | 13.0 | 0.00 | 0.58 | 0.00 | 86 | 1008.0 |
| 20260509064412 | 69 | 203 | 7.0 | 12.0 | 0.00 | 0.58 | 0.00 | 86 | 1008.0 |
| 20260509063912 | 69 | 209 | 8.0 | 13.0 | 0.00 | 0.58 | 0.00 | 86 | 1007.9 |
| 20260509063413 | 69 | 221 | 8.0 | 13.0 | 0.00 | 0.58 | 0.00 | 86 | 1008.2 |
| 20260509062913 | 69 | 215 | 7.0 | 17.0 | 0.00 | 0.58 | 0.00 | 86 | 1008.4 |
| 20260509062413 | 69 | 227 | 9.0 | 17.0 | 0.00 | 0.58 | 0.00 | 86 | 1008.5 |
| 20260509060913 | 69 | 231 | 8.0 | 14.0 | 0.00 | 0.58 | 0.00 | 87 | 1008.7 |
| 20260509060413 | 68 | 233 | 9.0 | 14.0 | 0.00 | 0.58 | 0.00 | 87 | 1008.5 |
| 20260509055913 | 68 | 231 | 8.0 | 13.0 | 0.00 | 0.58 | 0.00 | 87 | 1008.4 |
| 20260509055414 | 68 | 220 | 6.0 | 10.0 | 0.00 | 0.58 | 0.00 | 86 | 1008.5 |
| 20260509054914 | 68 | 216 | 6.0 | 9.0 | 0.00 | 0.58 | 0.00 | 86 | 1008.5 |
| 20260509054413 | 68 | 215 | 7.0 | 10.0 | 0.00 | 0.58 | 0.00 | 86 | 1008.4 |
| 20260509053913 | 68 | 215 | 7.0 | 10.0 | 0.00 | 0.58 | 0.00 | 86 | 1008.6 |
| 20260509053413 | 68 | 213 | 7.0 | 10.0 | 0.00 | 0.58 | 0.00 | 86 | 1008.5 |
| 20260509052415 | 68 | 233 | 5.0 | 8.0 | 0.00 | 0.58 | 0.00 | 86 | 1008.9 |
| 20260509051914 | 68 | 199 | 6.0 | 8.0 | 0.00 | 0.58 | 0.00 | 85 | 1008.7 |
| 20260509051414 | 69 | 191 | 5.0 | 7.0 | 0.00 | 0.58 | 0.00 | 85 | 1009.0 |
| 20260509050914 | 69 | 190 | 2.0 | 6.0 | 0.00 | 0.58 | 0.00 | 84 | 1009.3 |
| 20260509050414 | 70 | 173 | 5.0 | 6.0 | 0.00 | 0.58 | 0.00 | 84 | 1009.3 |
| 20260509045913 | 70 | 299 | 4.0 | 5.0 | 0.00 | 0.58 | 0.00 | 84 | 1009.6 |
| 20260509045413 | 70 | 299 | 3.0 | 5.0 | 0.00 | 0.58 | 0.58 | 84 | 1009.9 |
| 20260509044914 | 70 | 299 | 4.0 | 9.0 | 0.00 | 0.58 | 0.58 | 84 | 1010.2 |
| 20260509044413 | 70 | 301 | 3.0 | 10.0 | 0.00 | 0.58 | 0.58 | 84 | 1010.3 |
| 20260509043913 | 70 | 325 | 6.0 | 13.0 | 0.00 | 0.58 | 0.58 | 84 | 1010.4 |
| 20260509043413 | 70 | 336 | 9.0 | 13.0 | 0.00 | 0.58 | 0.58 | 84 | 1010.6 |
| 20260509042914 | 70 | 338 | 10.0 | 13.0 | 0.00 | 0.58 | 0.58 | 83 | 1010.7 |
| 20260509041915 | 70 | 224 | 1.0 | 3.0 | 0.00 | 0.58 | 0.58 | 83 | 1009.2 |
| 20260509041414 | 70 | 224 | 0.0 | 5.0 | 0.00 | 0.58 | 0.58 | 83 | 1009.1 |
| 20260509040914 | 70 | 224 | 3.0 | 5.0 | 0.00 | 0.58 | 0.58 | 83 | 1008.9 |
| 20260509035913 | 71 | 188 | 3.0 | 6.0 | 0.00 | 0.58 | 0.58 | 82 | 1008.8 |
| 20260509035414 | 71 | 137 | 3.0 | 6.0 | 0.00 | 0.58 | 0.58 | 82 | 1008.7 |
| 20260509033913 | 71 | 81 | 5.0 | 8.0 | 0.00 | 0.58 | 0.58 | 82 | 1008.6 |
| 20260509033414 | 71 | 137 | 1.0 | 13.0 | 0.00 | 0.58 | 0.58 | 82 | 1008.3 |
| 20260509032914 | 71 | 189 | 7.0 | 13.0 | 0.00 | 0.58 | 0.58 | 82 | 1007.8 |
| 20260509032415 | 71 | 183 | 7.0 | 10.0 | 0.00 | 0.58 | 0.58 | 82 | 1007.9 |
| 20260509031914 | 71 | 171 | 6.0 | 10.0 | 0.00 | 0.58 | 0.58 | 82 | 1008.1 |
| 20260509031414 | 71 | 168 | 5.0 | 12.0 | 0.00 | 0.58 | 0.58 | 82 | 1008.0 |
| 20260509030914 | 71 | 182 | 7.0 | 15.0 | 0.00 | 0.58 | 0.58 | 81 | 1007.9 |